Location: Lecco
(45.8566°N, 9.3977°E)
Time: 11:58:39
(UTC+02:00)

Vanguard 2 Rocket - Pass Details

Date: 18 August 2020
Orbit: 554 x 3326 km, 32.9° (Epoch: 24 September)

Event Time Altitude Azimuth Distance (km) Brightness Sun altitude
Rises 19:29:50 0° 250° (WSW) 3,167 10.9 8.5°
Reaches altitude 10° 19:32:14 10° 236° (SW) 2,466 10.0 8.1°
Maximum altitude 19:37:01 26° 181° (S) 2,031 8.7 7.3°
Drops below altitude 10° 19:44:10 10° 129° (SE) 3,799 9.6 6.0°
Sets 19:48:56 0° 119° (ESE) 5,320 10.2 5.2°
